Home   Weather   Hopkinsville   Past weeks

Flag for USA Past Weather in Hopkinsville, Kentucky, USA — Yesterday and Last 2 Weeks

Now
86 °F

Sunny.


Feels Like: 88 °F
Forecast: 71 / 88 °F
Wind: 15 mph from South

Location: Fort Campbell U. S. Army Airfield

Current Time: Apr 29, 2017 at 6:35:38 pm

Latest Report: Apr 29, 2017 at 5:58 pm


Visibility: 10 mi

Pressure: 29.88 "Hg

Humidity: 51%

Dew Point: 65 °F

Location of HopkinsvilleLocation

Past Weather in Hopkinsville — Graph

°F

Hopkinsville Temperature Yesterday

Maximum temperature yesterday: 79 °F (at 5:58 pm)
Minimum temperature yesterday: 53 °F (at 12:58 am)
Average temperature yesterday: 68 °F

High & Low Weather Summary for the Past Weeks

 TemperatureHumidityPressure
High87 °F (Apr 29, 3:58 pm)100% (Apr 16, 8:29 pm)30.22 "Hg (Apr 16, 8:29 pm)
Low47 °F (Apr 23, 9:58 am)31% (Apr 14, 5:58 pm)29.51 "Hg (Apr 26, 6:58 pm)
Average64 °F81%29.95 "Hg
* Reported Apr 14 4:58 pm — Apr 29 4:58 pm, Hopkinsville, Weather by CustomWeather, © 2017

Note: Actual official high and low records may vary slightly from our data, if they occured in-between our weather recording intervals... More about our weather records

Advertising

Hopkinsville Weather History for the Previous 24 Hours

Scroll right to see more
 ConditionsComfort  
Time TempWeatherWind HumidityBarometerVisibility
4:58 pm
Sat, Apr 29
86 °FSunny.13 mph52%29.86 "Hg10 mi
3:58 pm87 °FPassing clouds.13 mph51%29.90 "Hg10 mi
2:58 pm86 °FPassing clouds.13 mph51%29.92 "Hg10 mi
2:13 pm86 °FSunny.15 mph52%29.90 "Hg10 mi
2:09 pm86 °FPassing clouds.16 mph52%29.92 "Hg10 mi
12:58 pm84 °FSunny.9 mph56%29.95 "Hg10 mi
12:12 pm82 °FSunny.No wind62%29.97 "Hg10 mi
12:09 pm82 °FPassing clouds.No wind62%29.97 "Hg10 mi
11:58 am81 °FScattered clouds.5 mph63%29.98 "Hg10 mi
10:58 am79 °FBroken clouds.6 mph68%30.00 "Hg10 mi
9:58 am79 °FPartly sunny.6 mph70%29.99 "Hg10 mi
8:58 am76 °FBroken clouds.5 mph75%29.98 "Hg10 mi
7:58 am75 °FScattered clouds.7 mph81%29.96 "Hg9 mi
6:58 am73 °FScattered clouds.9 mph84%29.93 "Hg10 mi
5:58 am73 °FScattered clouds.8 mph84%29.92 "Hg10 mi
4:58 am73 °FPassing clouds.9 mph83%29.90 "Hg10 mi
3:58 am74 °FClear.8 mph80%29.89 "Hg10 mi
2:58 am75 °FClear.10 mph77%29.88 "Hg10 mi
1:58 am76 °FClear.7 mph75%29.88 "Hg10 mi
12:58 am77 °FClear.10 mph73%29.87 "Hg10 mi
11:58 pm
Fri, Apr 28
78 °FClear.13 mph73%29.84 "Hg10 mi
10:58 pm78 °FClear.17 mph74%29.81 "Hg10 mi
9:58 pm76 °FClear.10 mph77%29.84 "Hg10 mi
8:58 pm77 °FClear.9 mph76%29.83 "Hg10 mi
7:58 pm78 °FClear.9 mph75%29.82 "Hg10 mi
6:58 pm78 °FClear.6 mph74%29.83 "Hg10 mi
Weather by CustomWeather, © 2017

See weather overviewHow to use our weather pages